Temperature
15 16 16 15 15 15 15 16 16 18 18 19 19 17 16 15 14 13 12 10 9 8 7 7 7 7 7 6 6 6 5 5 4 4 3 3 2 1 1 1 1 1 0 -0
14 13 15 15 15 15 15 16 17 18 18 18 17 15 15 14 13 12 11 9 9 8 7 7 7 6 6 6 5 5 4 4 3 3 2 2 1 1 0 0 0 -0 -1 -1
14 13 14 13 15 15 15 16 17 16 18 16 14 14 14 13 12 12 10 10 9 8 7 7 6 6 5 5 4 4 3 3 2 2 1 1 0 -0 -0 -0 -0 -1 -1 -2
12 12 11 15 13 15 16 16 16 16 15 15 15 13 11 11 11 10 10 10 9 8 7 6 6 5 4 4 3 3 3 2 1 1 0 -0 -0 -1 -0 -1 -1 -2 -3 -4
10 11 14 14 12 12 13 14 14 14 14 13 11 11 10 8 9 10 10 9 9 8 7 6 5 4 3 3 3 2 2 1 0 -0 -0 -1 -1 -1 -1 -1 -2 -3 -4 -5
10 12 13 14 12 12 14 15 12 13 12 11 11 13 12 8 9 9 9 8 8 7 5 4 4 3 2 2 2 1 1 0 -0 -1 -1 -1 -1 -1 -2 -3 -4 -4 -5 -6
11 11 13 13 12 12 14 13 10 11 11 11 12 11 9 8 8 8 8 7 6 5 4 3 3 2 2 1 1 1 0 -0 -1 -1 -1 -1 -2 -2 -3 -4 -5 -5 -6 -7
11 9 10 11 10 11 12 9 10 10 9 9 8 8 8 8 8 7 7 6 5 4 3 3 2 1 1 0 0 -0 -0 -1 -1 -2 -2 -2 -3 -3 -4 -5 -6 -6 -7 -7
12 11 9 8 9 9 9 9 9 8 8 9 8 8 7 7 7 7 6 5 4 3 2 1 1 1 -0 -0 -1 -1 -1 -1 -2 -2 -3 -3 -4 -4 -5 -6 -7 -7 -8 -8
10 9 8 7 7 8 8 9 9 9 8 8 8 7 7 7 6 6 5 4 3 2 1 1 0 -0 -1 -1 -1 -1 -1 -2 -3 -3 -3 -4 -5 -6 -6 -7 -8 -8 -8 -8
9 8 7 7 7 8 9 9 8 8 8 7 7 7 6 6 5 4 4 3 2 1 -0 -1 -1 -1 -1 -1 -1 -2 -2 -3 -3 -4 -5 -5 -6 -6 -7 -8 -8 -9 -9 -9
12 10 11 9 7 8 8 8 8 7 7 7 6 6 6 5 4 3 2 2 1 -0 -1 -1 -2 -2 -2 -2 -2 -3 -3 -4 -4 -4 -5 -6 -7 -7 -8 -9 -10 -9 -9 -10
10 9 8 8 7 7 8 7 7 6 6 6 6 5 5 4 3 2 1 0 -0 -1 -2 -2 -2 -2 -2 -3 -3 -4 -4 -4 -5 -6 -6 -7 -8 -8 -9 -9 -10 -10 -10 -10
8 8 5 6 6 7 7 6 6 6 6 5 5 4 4 3 1 0 -0 -1 -1 -1 -2 -2 -2 -3 -3 -3 -4 -4 -4 -5 -6 -7 -8 -9 -9 -9 -9 -10 -10 -10 -10 -10
6 7 7 7 6 6 6 6 6 5 5 4 4 3 2 1 -0 -1 -2 -1 -1 -2 -2 -2 -3 -3 -4 -4 -4 -4 -5 -6 -6 -7 -8 -9 -10 -10 -10 -10 -10 -10 -10 -10
6 6 6 6 6 6 5 5 5 4 4 3 2 2 1 0 -1 -1 -1 -2 -2 -2 -3 -3 -3 -4 -4 -4 -5 -5 -6 -6 -7 -8 -9 -10 -10 -10 -10 -10 -10 -10 -10 -10
5 4 5 5 5 5 5 4 4 3 2 2 1 1 0 0 -1 -1 -2 -2 -3 -3 -3 -4 -4 -4 -4 -5 -5 -6 -6 -7 -8 -9 -10 -10 -11 -11 -10 -10 -11 -11 -11 -11
7 7 7 6 5 5 4 3 3 2 2 1 1 1 0 -1 -1 -2 -2 -3 -3 -3 -4 -4 -4 -5 -5 -5 -6 -6 -7 -8 -9 -10 -11 -11 -11 -11 -11 -11 -11 -11 -11 -12
6 6 5 5 4 4 3 2 2 2 1 1 1 0 -1 -1 -2 -3 -3 -3 -3 -4 -4 -5 -5 -5 -6 -6 -6 -7 -8 -9 -10 -11 -11 -11 -11 -11 -11 -12 -12 -12 -12 -12
5 5 4 4 3 3 2 2 2 1 1 0 -0 -1 -1 -2 -2 -3 -3 -3 -4 -4 -5 -5 -5 -6 -6 -7 -7 -8 -10 -11 -11 -11 -11 -11 -12 -12 -12 -12 -12 -13 -13 -13
4 4 4 3 3 2 2 1 1 0 -0 -1 -1 -2 -2 -2 -3 -3 -3 -4 -5 -5 -5 -6 -6 -7 -7 -8 -9 -10 -10 -11 -11 -11 -12 -12 -12 -12 -13 -13 -13 -13 -14 -14
4 3 3 3 2 2 1 0 -0 -1 -1 -1 -2 -2 -3 -3 -3 -4 -5 -5 -5 -6 -6 -7 -7 -7 -8 -9 -10 -10 -10 -10 -11 -11 -11 -12 -12 -13 -13 -13 -14 -14 -14 -14
3 3 3 2 1 1 -0 -1 -1 -1 -2 -2 -3 -3 -3 -4 -4 -5 -6 -6 -6 -7 -7 -7 -8 -8 -9 -9 -10 -10 -10 -10 -11 -11 -11 -12 -12 -12 -13 -14 -14 -14 -14 -14
3 2 2 1 0 -1 -1 -1 -2 -2 -2 -3 -3 -4 -4 -5 -6 -6 -7 -7 -7 -7 -8 -8 -9 -9 -9 -10 -10 -10 -10 -11 -11 -11 -11 -12 -12 -13 -13 -14 -14 -14 -14 -14
2 1 0 -0 -1 -1 -2 -2 -2 -3 -4 -4 -4 -5 -6 -6 -7 -7 -7 -8 -8 -8 -8 -9 -9 -9 -10 -10 -10 -11 -11 -11 -11 -12 -13 -13 -12 -13 -13 -14 -14 -14 -14 -13
-0 -1 -1 -2 -2 -2 -2 -3 -4 -4 -5 -5 -6 -6 -7 -7 -8 -8 -8 -8 -8 -9 -9 -9 -9 -10 -10 -10 -11 -11 -11 -11 -12 -12 -12 -12 -13 -13 -13 -13 -13 -13 -13 -12
-1 -2 -2 -2 -3 -3 -4 -4 -5 -6 -6 -7 -7 -8 -8 -8 -8 -8 -9 -9 -9 -9 -9 -10 -10 -10 -11 -11 -11 -11 -12 -12 -12 -12 -12 -12 -12 -12 -12 -12 -12 -12 -12 -12
Wind_Speed
5 6 15 16 20 21 21 20 15 15 18 17 9 7 9 11 13 14 13 14 15 15 14 13 11 9 8 7 5 4 3 1 1 2 4 5 6 8 9 9 10 11 12 13
3 5 10 13 19 23 24 23 22 18 17 7 4 8 10 11 12 12 12 13 14 14 14 13 11 10 8 7 5 4 2 1 1 3 5 6 8 9 10 11 11 12 13 14
3 4 4 9 17 20 20 23 22 21 17 8 9 11 12 11 10 9 9 10 12 13 12 12 11 10 9 7 5 3 2 1 3 4 6 8 9 10 11 12 13 14 15 15
3 4 5 2 0 13 19 19 19 17 6 10 11 11 9 8 8 7 6 7 8 10 11 10 10 9 8 6 4 3 1 1 3 5 7 9 10 11 11 12 13 14 15 16
3 5 5 2 4 6 8 11 13 13 10 11 14 13 7 5 6 6 4 4 6 9 11 11 10 9 7 5 3 1 1 2 4 6 8 10 11 12 13 13 14 15 15 16
2 3 4 1 3 4 4 4 8 12 15 16 14 10 7 6 6 6 5 6 8 10 11 10 9 8 6 4 2 1 2 3 5 7 9 11 12 13 13 14 15 15 15 15
8 3 6 2 4 4 4 4 10 12 15 13 8 4 8 8 6 6 7 8 9 10 9 9 8 6 4 3 1 1 2 4 6 7 9 11 12 12 14 14 15 15 15 14
6 4 8 4 5 4 3 8 12 13 12 10 10 8 8 7 7 7 7 9 9 8 8 7 6 5 4 2 0 2 3 5 7 9 9 10 12 13 13 14 15 15 15 14
7 6 2 2 2 2 7 12 10 9 9 10 9 7 6 5 5 5 6 7 7 7 8 7 5 3 3 2 1 3 4 6 8 10 10 10 11 13 13 13 13 14 13 14
4 3 2 3 3 6 9 10 9 10 9 8 7 6 5 3 3 4 6 7 8 8 8 6 5 4 3 2 1 3 6 8 9 10 11 11 11 11 12 12 13 13 14 15
5 4 4 3 6 9 10 11 11 9 6 6 6 5 3 3 3 4 5 7 8 8 8 7 6 4 3 2 1 4 7 9 9 10 11 12 12 11 12 12 13 15 15 15
7 12 9 11 12 12 12 10 10 9 6 4 3 2 0 1 1 3 6 8 8 8 7 7 6 4 2 0 2 5 8 8 9 10 11 11 12 13 13 14 18 20 21 19
5 9 8 14 13 10 10 9 7 6 5 4 3 2 1 1 2 3 6 8 8 8 7 6 4 3 2 3 5 7 8 9 10 10 11 12 12 13 15 15 16 18 20 21
12 11 10 10 9 10 10 10 8 7 5 4 3 2 2 2 3 4 6 7 7 6 5 4 3 3 3 4 6 8 9 10 10 10 11 11 12 13 14 15 15 14 16 20
6 4 10 13 13 11 9 7 6 4 3 2 1 3 4 5 5 5 5 6 5 4 4 4 4 5 4 5 6 8 9 9 10 11 11 12 12 13 13 14 14 15 15 16
9 10 12 13 11 8 6 5 5 4 3 3 4 5 5 5 4 4 5 6 5 5 5 4 5 5 4 5 7 8 9 11 11 11 11 11 12 12 13 13 14 14 15 15
15 10 9 9 9 8 6 5 4 4 4 5 5 5 5 4 4 5 5 5 5 4 4 5 5 4 5 6 7 8 9 10 12 11 11 11 12 13 13 13 14 14 14 16
12 13 14 15 13 10 7 5 4 4 4 4 4 5 5 6 6 6 6 5 5 5 5 4 4 5 6 7 8 9 9 9 10 11 11 12 13 13 12 13 14 15 14 16
11 13 13 12 10 9 7 5 4 3 3 3 3 4 4 5 5 4 5 5 5 4 2 2 4 6 7 8 10 9 9 10 11 12 12 14 14 12 12 13 13 14 14 14
12 13 13 11 8 7 6 4 3 2 1 2 3 3 4 5 5 5 5 4 4 2 2 3 5 7 8 9 10 9 10 11 12 12 12 12 12 12 12 13 14 14 14 14
13 12 11 10 8 6 5 4 2 2 2 3 5 5 5 4 4 4 3 3 1 1 3 5 6 7 8 9 11 10 10 11 12 12 12 12 12 12 12 13 13 13 13 13
10 9 9 8 7 5 3 2 2 2 3 4 4 3 3 3 3 2 2 2 1 3 5 5 6 9 12 14 10 10 11 11 11 11 11 11 11 12 12 13 13 12 12 13
8 7 7 7 6 5 4 2 2 3 3 3 4 3 3 2 2 1 1 0 2 5 7 7 9 13 16 12 9 10 10 11 11 10 11 11 11 11 12 13 12 12 12 12
7 7 7 6 6 6 4 3 3 4 4 5 5 4 4 2 1 1 1 3 5 8 7 9 12 15 14 9 8 9 10 10 10 11 11 11 11 11 11 12 12 12 12 14
6 6 6 6 6 5 5 5 6 6 7 6 6 5 4 3 2 1 3 4 6 8 8 10 13 13 9 8 9 10 10 11 11 12 12 11 11 11 12 12 12 12 12 12
6 6 6 5 5 5 5 5 5 5 5 5 4 3 2 2 2 3 3 5 7 8 8 7 8 9 9 9 10 11 11 12 13 12 12 12 12 12 12 12 13 12 11 12
8 7 6 6 5 4 5 5 6 5 4 3 3 2 1 2 3 4 5 5 6 7 7 8 8 9 9 10 11 11 11 12 12 12 12 11 11 11 11 12 11 11 11 11
Wind_Direction
221 174 181 191 193 194 206 215 230 238 239 245 226 182 169 165 168 171 175 179 185 186 183 178 174 168 161 155 153 154 157 141 32 338 337 337 330 326 321 316 314 318 317 315
154 154 193 208 208 205 213 217 229 248 253 244 196 172 168 168 168 172 175 182 187 187 184 179 175 169 163 161 164 176 180 172 330 325 327 327 324 321 314 313 315 317 316 315
152 116 160 229 213 208 216 222 225 236 247 185 174 184 178 165 160 160 166 176 183 185 182 176 172 165 166 165 167 176 185 312 322 323 321 319 315 310 313 317 318 317 317 315
83 96 216 226 291 217 221 229 230 241 227 190 176 148 129 129 133 130 142 168 178 176 171 166 158 158 155 156 163 172 202 310 322 317 311 309 310 315 321 321 319 317 315 313
152 195 267 234 175 165 198 236 217 216 181 149 137 131 114 95 93 99 108 140 161 162 159 155 156 155 154 156 161 185 283 319 315 309 307 310 317 324 323 319 315 314 313 311
205 229 246 218 161 175 175 238 176 170 155 149 156 173 155 127 110 104 108 126 137 142 148 152 151 154 162 162 158 233 307 316 309 305 306 314 322 321 317 314 311 312 309 312
213 231 285 229 155 167 200 185 148 150 147 150 157 121 124 129 121 119 122 131 139 145 150 150 151 157 156 151 169 301 311 310 305 307 315 320 318 316 314 312 311 311 312 315
181 195 253 171 145 212 159 135 140 136 136 129 126 128 130 134 136 140 139 146 151 152 149 148 150 155 155 172 194 295 305 307 311 318 319 314 311 311 312 312 313 316 319 319
189 210 250 241 266 159 148 138 136 130 130 133 137 144 145 147 154 162 164 162 163 162 157 155 150 154 184 175 250 298 310 315 317 315 312 311 309 309 311 315 319 320 320 318
193 216 232 222 140 126 124 120 119 124 129 137 140 147 158 173 187 191 187 181 178 177 175 170 165 177 195 193 259 308 317 317 313 310 311 310 309 310 314 319 320 319 316 316
184 186 151 178 154 133 118 115 111 106 113 123 139 159 182 214 224 213 197 189 184 187 187 182 178 188 191 197 302 315 311 303 303 308 308 310 311 314 311 309 309 308 309 310
189 180 171 172 158 148 138 134 132 127 117 90 77 104 95 279 246 207 193 183 184 187 183 175 181 193 192 248 304 294 295 303 309 308 310 313 314 313 308 304 303 302 303 302
159 151 147 145 147 148 135 130 120 114 112 115 91 91 133 204 200 183 177 177 180 182 177 171 180 201 225 258 266 275 288 300 307 309 312 314 316 316 315 316 312 306 305 305
137 126 131 148 145 139 128 120 111 100 92 94 120 154 186 185 171 176 176 173 174 171 165 170 198 230 243 258 269 280 292 300 305 309 311 313 313 313 314 315 317 316 314 310
133 109 136 132 125 121 116 115 113 114 117 121 172 213 215 209 203 191 168 157 155 166 186 203 232 250 255 266 279 293 299 304 310 311 312 312 311 312 312 313 313 314 316 318
115 104 115 121 125 124 120 130 144 155 167 186 206 216 217 216 202 168 161 165 179 205 215 225 252 272 282 287 295 298 300 306 311 313 314 314 313 313 314 313 313 315 317 320
132 132 129 131 141 146 148 151 155 162 178 197 208 205 200 190 183 184 184 189 210 226 225 238 263 286 292 295 300 304 308 313 315 312 311 312 312 312 312 313 314 314 316 319
147 149 153 152 151 149 149 153 162 174 190 188 183 183 191 200 208 202 192 191 208 228 238 249 273 290 294 303 309 309 309 310 310 309 309 309 309 311 312 311 313 314 317 319
130 129 129 128 132 133 137 150 159 158 151 155 173 198 213 220 216 188 176 193 221 246 247 245 287 294 303 315 317 311 306 306 307 307 307 308 308 310 312 312 313 315 317 319
122 119 120 119 121 129 134 133 129 127 139 180 204 211 213 207 191 177 182 211 239 267 302 304 307 312 315 317 312 305 303 306 306 307 308 309 310 312 312 313 314 317 318 318
131 132 136 141 138 129 121 123 142 178 187 198 210 213 205 187 180 179 198 236 219 265 301 306 309 312 312 310 306 306 307 306 306 307 308 308 310 312 313 314 315 315 314 315
144 148 149 143 135 125 114 117 152 189 197 197 199 187 171 164 169 193 234 269 327 321 308 304 309 311 312 311 311 309 307 306 306 307 307 308 310 311 311 310 310 311 312 314
147 143 137 136 138 133 126 125 162 184 179 166 160 156 143 134 159 213 254 328 310 310 307 305 309 311 314 314 311 307 306 306 306 306 306 307 308 306 305 306 309 311 312 312
132 130 126 127 132 142 145 127 111 108 105 98 92 96 103 109 102 56 360 326 318 310 306 306 311 316 317 315 308 306 305 304 305 306 305 305 304 303 305 306 307 309 310 311
119 118 128 142 147 145 134 129 117 110 105 100 91 80 68 49 31 347 319 312 312 310 307 309 316 319 316 308 307 306 304 301 300 302 305 306 304 303 304 306 308 310 311 313
135 135 131 127 128 133 137 135 124 124 125 115 98 77 62 34 354 328 317 316 314 313 313 313 314 314 312 307 304 302 301 302 302 304 305 302 301 303 305 306 307 310 310 308
121 124 120 107 97 105 113 116 113 106 101 114 121 95 26 352 339 331 324 318 314 313 312 310 309 309 308 306 304 303 302 302 302 302 301 301 302 301 302 304 306 306 304 304
Height
1430 1431 1434 1440 1446 1448 1449 1449 1449 1440 1441 1438 1440 1446 1449 1452 1456 1460 1464 1467 1470 1473 1476 1477 1479 1481 1482 1483 1484 1484 1483 1482 1481 1478 1476 1473 1470 1467 1463 1459 1454 1450 1444 1439
1435 1438 1436 1438 1438 1441 1442 1441 1439 1438 1435 1439 1443 1447 1449 1452 1455 1458 1461 1464 1466 1469 1471 1473 1476 1478 1479 1480 1481 1481 1480 1479 1477 1475 1472 1469 1467 1463 1458 1454 1449 1444 1438 1433
1433 1440 1440 1444 1433 1435 1436 1434 1433 1435 1431 1439 1444 1446 1447 1450 1453 1456 1459 1462 1464 1466 1468 1470 1472 1474 1476 1477 1478 1478 1476 1475 1473 1470 1468 1466 1462 1458 1453 1448 1443 1437 1432 1426
1442 1446 1451 1431 1430 1426 1427 1427 1430 1430 1435 1437 1439 1445 1450 1452 1454 1457 1459 1461 1463 1464 1466 1468 1470 1472 1474 1474 1475 1474 1473 1471 1469 1467 1465 1461 1457 1453 1448 1443 1437 1431 1424 1419
1448 1447 1431 1427 1429 1430 1430 1426 1427 1429 1434 1439 1443 1447 1452 1454 1455 1457 1459 1460 1461 1462 1464 1465 1467 1469 1471 1472 1472 1471 1469 1468 1466 1464 1461 1457 1453 1448 1443 1437 1430 1424 1418 1412
1447 1442 1435 1423 1425 1425 1427 1422 1424 1427 1432 1438 1443 1444 1451 1454 1455 1456 1457 1459 1459 1459 1461 1463 1465 1468 1469 1470 1469 1468 1466 1465 1463 1460 1457 1453 1448 1443 1437 1431 1424 1418 1411 1405
1438 1440 1427 1423 1424 1427 1426 1424 1427 1429 1434 1440 1443 1446 1452 1453 1454 1455 1456 1456 1457 1458 1460 1462 1464 1466 1467 1467 1466 1465 1464 1462 1460 1457 1453 1449 1444 1439 1432 1426 1420 1413 1407 1400
1436 1444 1440 1423 1426 1427 1423 1426 1428 1432 1436 1440 1444 1448 1450 1451 1453 1454 1454 1455 1456 1457 1459 1461 1462 1463 1464 1464 1464 1462 1460 1458 1456 1453 1449 1444 1439 1433 1427 1421 1414 1407 1400 1394
1423 1427 1424 1424 1423 1423 1424 1426 1431 1435 1438 1441 1444 1447 1449 1451 1452 1453 1453 1454 1454 1456 1457 1459 1460 1461 1462 1461 1460 1459 1457 1455 1452 1449 1445 1440 1434 1427 1421 1414 1408 1401 1395 1390
1420 1422 1423 1424 1423 1423 1425 1427 1432 1436 1438 1442 1444 1446 1448 1450 1450 1451 1451 1451 1452 1453 1455 1456 1457 1458 1458 1457 1456 1456 1454 1451 1448 1444 1439 1434 1428 1422 1416 1409 1403 1397 1392 1386
1419 1423 1423 1423 1423 1424 1427 1430 1433 1436 1439 1441 1444 1445 1447 1447 1447 1448 1448 1448 1449 1450 1452 1453 1454 1454 1453 1453 1453 1452 1450 1447 1443 1439 1433 1428 1422 1416 1409 1404 1399 1394 1388 1383
1404 1408 1411 1416 1421 1424 1427 1430 1433 1436 1438 1441 1443 1444 1444 1444 1444 1445 1445 1445 1446 1447 1449 1450 1450 1451 1451 1451 1450 1448 1445 1442 1438 1433 1428 1421 1415 1409 1403 1399 1393 1388 1383 1379
1400 1404 1408 1413 1419 1423 1427 1430 1433 1436 1438 1439 1440 1441 1441 1441 1441 1441 1441 1442 1444 1446 1447 1447 1448 1448 1448 1447 1445 1442 1440 1436 1432 1428 1422 1416 1410 1404 1399 1394 1389 1384 1379 1374
1399 1403 1409 1414 1418 1423 1427 1430 1433 1434 1436 1438 1438 1439 1439 1438 1438 1438 1439 1440 1442 1443 1444 1444 1445 1444 1444 1442 1440 1438 1435 1431 1427 1422 1417 1411 1406 1400 1395 1389 1384 1379 1375 1370
1401 1403 1407 1412 1418 1422 1426 1429 1432 1433 1435 1436 1436 1436 1436 1436 1436 1436 1437 1438 1439 1440 1441 1442 1442 1441 1440 1438 1436 1434 1430 1426 1421 1416 1411 1406 1401 1396 1391 1386 1380 1375 1370 1365
1401 1405 1409 1413 1417 1422 1425 1428 1431 1432 1433 1434 1434 1434 1435 1434 1434 1434 1435 1436 1438 1439 1439 1439 1439 1438 1437 1434 1432 1428 1424 1419 1414 1410 1405 1401 1397 1392 1387 1382 1377 1372 1366 1361
1398 1404 1409 1414 1418 1422 1425 1428 1429 1430 1431 1432 1432 1432 1432 1432 1432 1432 1433 1434 1435 1436 1436 1436 1435 1434 1432 1429 1426 1422 1418 1413 1409 1404 1401 1397 1392 1388 1384 1379 1373 1368 1362 1357
1399 1403 1408 1412 1417 1421 1424 1426 1427 1428 1429 1429 1429 1429 1429 1429 1430 1431 1431 1432 1432 1433 1433 1432 1431 1429 1427 1424 1420 1416 1412 1408 1404 1401 1396 1392 1388 1384 1379 1374 1369 1364 1358 1353
1402 1406 1410 1414 1418 1420 1422 1424 1426 1426 1427 1427 1427 1427 1427 1427 1427 1428 1428 1429 1429 1430 1430 1428 1426 1424 1422 1418 1415 1410 1407 1404 1400 1396 1392 1388 1383 1379 1374 1369 1364 1359 1354 1349
1403 1407 1411 1414 1417 1419 1421 1422 1423 1423 1424 1424 1424 1424 1424 1424 1424 1424 1424 1425 1426 1426 1425 1423 1422 1419 1416 1413 1409 1406 1402 1399 1395 1391 1387 1383 1378 1373 1369 1364 1360 1355 1350 1345
1402 1406 1410 1413 1415 1416 1418 1419 1420 1420 1421 1421 1421 1421 1420 1420 1420 1421 1421 1422 1422 1421 1420 1419 1417 1414 1410 1407 1404 1401 1397 1393 1389 1385 1381 1377 1373 1368 1364 1360 1355 1350 1345 1340
1402 1406 1408 1410 1412 1414 1416 1417 1417 1417 1417 1417 1417 1417 1417 1417 1418 1418 1418 1419 1418 1417 1416 1414 1412 1409 1405 1402 1399 1396 1392 1387 1383 1379 1376 1372 1367 1362 1358 1354 1350 1345 1341 1336
1402 1404 1407 1409 1411 1412 1413 1414 1414 1414 1414 1414 1414 1414 1414 1415 1416 1416 1416 1415 1413 1412 1411 1409 1406 1403 1399 1396 1393 1389 1385 1382 1378 1374 1370 1366 1361 1357 1353 1349 1345 1341 1336 1331
1400 1403 1405 1407 1409 1410 1411 1412 1411 1411 1411 1411 1411 1411 1412 1412 1413 1413 1412 1410 1409 1407 1405 1403 1399 1396 1393 1390 1386 1383 1379 1376 1372 1368 1364 1360 1356 1352 1348 1344 1340 1336 1331 1327
1399 1400 1402 1404 1406 1408 1408 1408 1408 1408 1408 1408 1408 1409 1409 1410 1410 1410 1408 1406 1404 1402 1399 1396 1393 1390 1387 1384 1381 1377 1374 1370 1366 1362 1358 1354 1350 1346 1342 1339 1335 1331 1327 1322
1397 1398 1400 1402 1403 1404 1405 1405 1405 1405 1406 1406 1407 1407 1407 1407 1407 1405 1404 1402 1400 1397 1394 1391 1388 1385 1382 1378 1375 1371 1368 1364 1360 1356 1352 1348 1344 1340 1337 1333 1330 1326 1322 1319
1395 1397 1398 1399 1401 1402 1403 1403 1404 1404 1404 1405 1406 1406 1405 1404 1403 1401 1399 1397 1395 1392 1389 1386 1383 1379 1376 1373 1369 1366 1362 1358 1354 1350 1345 1342 1338 1335 1331 1328 1325 1322 1319 1316